TimePST,TemperatureF,Dew PointF,Humidity,Sea Level PressureIn,VisibilityMPH,Wind Direction,Wind SpeedMPH,Gust SpeedMPH,PrecipitationIn,Events,Conditions,WindDirDegrees,DateUTC
12:15 AM,26.6,17.6,69,29.87,10.0,WNW,9.2,-,N/A,,Scattered Clouds,290,2014-02-03 08:15:00
12:35 AM,26.6,17.6,69,29.86,10.0,West,6.9,-,N/A,,Clear,270,2014-02-03 08:35:00
12:55 AM,26.6,17.6,69,29.86,10.0,West,10.4,-,N/A,,Scattered Clouds,280,2014-02-03 08:55:00
1:15 AM,26.6,15.8,64,29.86,10.0,West,10.4,-,N/A,,Scattered Clouds,270,2014-02-03 09:15:00
1:35 AM,26.6,15.8,64,29.85,10.0,West,11.5,-,N/A,,Scattered Clouds,270,2014-02-03 09:35:00
1:55 AM,26.6,14.0,59,29.86,10.0,West,8.1,-,N/A,,Mostly Cloudy,280,2014-02-03 09:55:00
2:15 AM,24.8,14.0,64,29.85,10.0,West,8.1,-,N/A,,Mostly Cloudy,270,2014-02-03 10:15:00
2:35 AM,24.8,15.8,69,29.84,10.0,West,6.9,-,N/A,,Clear,270,2014-02-03 10:35:00
2:55 AM,24.8,17.6,74,29.84,10.0,West,4.6,-,N/A,,Scattered Clouds,280,2014-02-03 10:55:00
3:15 AM,23.0,17.6,80,29.83,10.0,Calm,Calm,-,N/A,,Scattered Clouds,0,2014-02-03 11:15:00
3:35 AM,23.0,17.6,80,29.82,10.0,Calm,Calm,-,N/A,,Scattered Clouds,0,2014-02-03 11:35:00
3:55 AM,23.0,17.6,80,29.81,10.0,Calm,Calm,-,N/A,,Mostly Cloudy,0,2014-02-03 11:55:00
4:15 AM,23.0,17.6,80,29.82,10.0,Calm,Calm,-,N/A,,Mostly Cloudy,0,2014-02-03 12:15:00
4:35 AM,23.0,17.6,80,29.82,10.0,Calm,Calm,-,N/A,,Mostly Cloudy,0,2014-02-03 12:35:00
4:55 AM,23.0,17.6,80,29.82,10.0,Calm,Calm,-,N/A,,Overcast,0,2014-02-03 12:55:00
5:15 AM,21.2,17.6,86,29.82,10.0,Calm,Calm,-,N/A,,Mostly Cloudy,0,2014-02-03 13:15:00
5:35 AM,21.2,15.8,80,29.83,10.0,Calm,Calm,-,N/A,,Scattered Clouds,0,2014-02-03 13:35:00
5:55 AM,19.4,15.8,86,29.83,10.0,Calm,Calm,-,N/A,,Scattered Clouds,0,2014-02-03 13:55:00
6:15 AM,19.4,14.0,80,29.83,10.0,Calm,Calm,-,N/A,,Clear,0,2014-02-03 14:15:00
6:35 AM,17.6,14.0,86,29.83,10.0,Calm,Calm,-,N/A,,Clear,0,2014-02-03 14:35:00
6:55 AM,17.6,14.0,86,29.84,10.0,Calm,Calm,-,N/A,,Clear,0,2014-02-03 14:55:00
7:15 AM,17.6,14.0,86,29.85,10.0,Calm,Calm,-,N/A,,Clear,0,2014-02-03 15:15:00
7:35 AM,19.4,14.0,80,29.86,10.0,Calm,Calm,-,N/A,,Clear,0,2014-02-03 15:35:00
7:55 AM,21.2,15.8,80,29.86,10.0,Calm,Calm,-,N/A,,Clear,0,2014-02-03 15:55:00
8:15 AM,24.8,17.6,74,29.86,10.0,Calm,Calm,-,N/A,,Clear,0,2014-02-03 16:15:00
8:35 AM,26.6,19.4,74,29.86,10.0,Calm,Calm,-,N/A,,Clear,0,2014-02-03 16:35:00
8:55 AM,30.2,19.4,64,29.86,10.0,West,3.5,-,N/A,,Clear,260,2014-02-03 16:55:00
9:15 AM,32.0,17.6,55,29.86,10.0,West,5.8,-,N/A,,Clear,260,2014-02-03 17:15:00
9:35 AM,32.0,15.8,51,29.86,10.0,West,4.6,-,N/A,,Clear,270,2014-02-03 17:35:00
9:55 AM,32.0,14.0,48,29.86,10.0,WSW,5.8,-,N/A,,Clear,240,2014-02-03 17:55:00
10:15 AM,32.0,17.6,55,29.86,10.0,WSW,5.8,-,N/A,,Clear,250,2014-02-03 18:15:00
10:35 AM,33.8,15.8,48,29.86,10.0,SW,4.6,-,N/A,,Clear,230,2014-02-03 18:35:00
10:55 AM,33.8,19.4,56,29.86,10.0,WSW,8.1,-,N/A,,Clear,250,2014-02-03 18:55:00
11:15 AM,33.8,15.8,48,29.86,10.0,West,11.5,17.3,N/A,,Clear,260,2014-02-03 19:15:00
11:35 AM,33.8,19.4,56,29.86,10.0,WSW,10.4,16.1,N/A,,Clear,250,2014-02-03 19:35:00
11:55 AM,33.8,17.6,52,29.85,10.0,WSW,11.5,-,N/A,,Clear,250,2014-02-03 19:55:00
12:15 PM,33.8,17.6,52,29.85,10.0,WSW,10.4,16.1,N/A,,Clear,240,2014-02-03 20:15:00
12:35 PM,33.8,17.6,52,29.84,10.0,WSW,8.1,-,N/A,,Clear,250,2014-02-03 20:35:00
12:55 PM,35.6,17.6,48,29.84,10.0,WSW,9.2,-,N/A,,Clear,240,2014-02-03 20:55:00
1:15 PM,33.8,14.0,44,29.84,10.0,West,15.0,20.7,N/A,,Clear,260,2014-02-03 21:15:00
1:35 PM,33.8,17.6,52,29.84,10.0,West,11.5,19.6,N/A,,Clear,260,2014-02-03 21:35:00
1:55 PM,33.8,17.6,52,29.84,10.0,WSW,11.5,16.1,N/A,,Clear,250,2014-02-03 21:55:00
2:15 PM,33.8,14.0,44,29.84,10.0,West,13.8,20.7,N/A,,Clear,260,2014-02-03 22:15:00
2:35 PM,33.8,14.0,44,29.84,10.0,West,16.1,20.7,N/A,,Clear,270,2014-02-03 22:35:00
2:55 PM,33.8,14.0,44,29.84,10.0,West,11.5,-,N/A,,Clear,260,2014-02-03 22:55:00
3:15 PM,32.0,14.0,48,29.85,10.0,WSW,8.1,-,N/A,,Clear,240,2014-02-03 23:15:00
3:35 PM,32.0,17.6,55,29.85,10.0,WSW,11.5,18.4,N/A,,Clear,250,2014-02-03 23:35:00
3:55 PM,32.0,17.6,55,29.86,10.0,West,11.5,17.3,N/A,,Scattered Clouds,260,2014-02-03 23:55:00
4:15 PM,32.0,19.4,60,29.85,10.0,West,9.2,19.6,N/A,,Clear,260,2014-02-04 00:15:00
4:35 PM,32.0,19.4,60,29.85,10.0,West,12.7,-,N/A,,Scattered Clouds,260,2014-02-04 00:35:00
4:55 PM,30.2,19.4,64,29.86,10.0,WSW,9.2,-,N/A,,Clear,250,2014-02-04 00:55:00
5:15 PM,30.2,19.4,64,29.86,10.0,WSW,4.6,-,N/A,,Scattered Clouds,240,2014-02-04 01:15:00
5:35 PM,30.2,19.4,64,29.86,10.0,WSW,8.1,-,N/A,,Scattered Clouds,240,2014-02-04 01:35:00
5:55 PM,30.2,19.4,64,29.86,10.0,WSW,6.9,-,N/A,,Mostly Cloudy,240,2014-02-04 01:55:00
6:15 PM,30.2,19.4,64,29.86,10.0,SW,6.9,-,N/A,,Scattered Clouds,230,2014-02-04 02:15:00
6:35 PM,28.4,21.2,74,29.86,10.0,WSW,5.8,-,N/A,,Clear,240,2014-02-04 02:35:00
6:55 PM,28.4,21.2,74,29.87,10.0,SW,5.8,-,N/A,,Clear,230,2014-02-04 02:55:00
7:15 PM,28.4,21.2,74,29.87,10.0,SW,3.5,-,N/A,,Clear,230,2014-02-04 03:15:00
7:35 PM,28.4,23.0,80,29.87,10.0,WSW,4.6,-,N/A,,Scattered Clouds,250,2014-02-04 03:35:00
7:55 PM,28.4,23.0,80,29.88,10.0,WSW,5.8,-,N/A,,Scattered Clouds,250,2014-02-04 03:55:00
8:15 PM,28.4,21.2,74,29.88,10.0,Calm,Calm,-,N/A,,Scattered Clouds,0,2014-02-04 04:15:00
8:35 PM,28.4,23.0,80,29.89,10.0,WSW,5.8,-,N/A,,Scattered Clouds,250,2014-02-04 04:35:00
8:55 PM,28.4,23.0,80,29.89,10.0,Calm,Calm,-,N/A,,Scattered Clouds,0,2014-02-04 04:55:00
9:15 PM,28.4,21.2,74,29.90,10.0,SW,5.8,-,N/A,,Scattered Clouds,220,2014-02-04 05:15:00
9:35 PM,28.4,21.2,74,29.90,10.0,South,3.5,-,N/A,,Scattered Clouds,190,2014-02-04 05:35:00
9:55 PM,28.4,23.0,80,29.90,10.0,SW,3.5,-,N/A,,Mostly Cloudy,220,2014-02-04 05:55:00
10:15 PM,28.4,23.0,80,29.91,10.0,WSW,6.9,-,N/A,,Overcast,240,2014-02-04 06:15:00
10:35 PM,28.4,23.0,80,29.92,10.0,WSW,6.9,-,N/A,,Overcast,240,2014-02-04 06:35:00
10:55 PM,28.4,23.0,80,29.92,10.0,WSW,4.6,-,N/A,,Mostly Cloudy,250,2014-02-04 06:55:00
11:15 PM,28.4,23.0,80,29.92,10.0,WSW,5.8,-,N/A,,Mostly Cloudy,240,2014-02-04 07:15:00
11:35 PM,28.4,21.2,74,29.92,10.0,WSW,6.9,-,N/A,,Mostly Cloudy,250,2014-02-04 07:35:00
11:55 PM,26.6,21.2,80,29.92,10.0,WSW,8.1,-,N/A,,Scattered Clouds,250,2014-02-04 07:55:00